This demonstration page uses our WeatherBlox Daily Observations layout. Learn more.

41.55636, -103.73856

Hourly Observations for May 24, 2016

Temp ( °F °C ) Dew Point ( °F °C ) Humidity (%) Winds ( mph kmh ) Pressure ( in mb ) Visibility ( mi km ) Precip ( " mm )
12:53 am 00:53 Clear 42 5.6 40 4.4 92 92 Calm 29.84 1011 10 16.0934 0 0
1:53 am 01:53 Clear 41 5 39 3.9 93 93 N 5 7 29.83 1010 10 16.0934 0 0
2:53 am 02:53 Clear 42 5.6 38 3.3 85 85 NNE 5 7 29.83 1010 10 16.0934 0 0
3:53 am 03:53 Clear 39 3.9 36 2.2 89 89 NNW 5 7 29.85 1011 10 16.0934 0 0
4:53 am 04:53 Clear 39 3.9 36 2.2 89 89 Calm 29.86 1011 10 16.0934 0 0
5:53 am 05:53 Sunny 39 3.9 36 2.2 89 89 NNW 6 9 29.88 1012 10 16.0934 0 0
6:53 am 06:53 Sunny 46 7.8 41 5 83 83 Calm 29.89 1012 10 16.0934 0 0
7:53 am 07:53 Sunny 51 10.6 44 6.7 77 77 Calm 29.9 1012 10 16.0934 0 0
8:53 am 08:53 Sunny 57 13.9 46 7.8 67 67 ESE 9 15 29.9 1013 10 16.0934 0 0
9:53 am 09:53 Mostly Cloudy 62 16.7 45 7.2 54 54 ESE 5 7 29.88 1012 10 16.0934 0 0
10:53 am 10:53 Partly Cloudy 67 19.4 47 8.3 49 49 SE 9 15 29.87 1012 10 16.0934 0 0
11:53 am 11:53 Partly Cloudy 70 21.1 48 8.9 46 46 SE 13 20 29.85 1011 10 16.0934 0 0
12:53 pm 12:53 Sunny 74 23.3 49 9.4 41 41 SSE 15 24 29.81 1010 10 16.0934 0 0
1:53 pm 13:53 Mostly Sunny 76 24.4 48 8.9 37 37 SSE 15 24 29.78 1009 10 16.0934 0 0
2:53 pm 14:53 Partly Cloudy 78 25.6 48 8.9 35 35 SSE 18 30 29.74 1007 10 16.0934 0 0
3:53 pm 15:53 Mostly Sunny 77 25 46 7.8 33 33 SSE 21 33 29.72 1007 10 16.0934 0 0
4:53 pm 16:53 Sunny 73 22.8 47 8.3 40 40 SSE 18 30 29.72 1006 10 16.0934 0 0
5:53 pm 17:53 Windy with Storms Likely 71 21.7 35 1.7 27 27 SSE 29 46 29.75 1008 10 16.0934 0 0.0254
6:10 pm 18:10 Cloudy with Nearby Thunderstorms 65 18.3 42 5.6 43 43 SSE 31 50 29.68 1005 10 16.0934 0 0.0254
6:35 pm 18:35 Cloudy with Light Rain 60 15.6 46 7.8 60 60 SE 48 78 29.59 1002 10 16.0934 0 0.0254
6:53 pm 18:53 Mostly Cloudy with Light Rain 60 15.6 48 8.9 65 65 SSE 25 41 29.72 1007 10 16.0934 0 0.0254
7:53 pm 19:53 Sunny 59 15 48 8.9 67 67 ESE 10 17 29.75 1007 10 16.0934 0.01 0.254
8:53 pm 20:53 Clear 59 15 47 8.3 64 64 ENE 15 24 29.76 1008 10 16.0934 0 0
9:53 pm 21:53 Partly Cloudy 56 13.3 47 8.3 72 72 NE 14 22 29.76 1008 10 16.0934 0 0
10:53 pm 22:53 Mostly Clear 53 11.7 47 8.3 80 80 ENE 14 22 29.74 1007 10 16.0934 0 0
11:53 pm 23:53 Clear 52 11.1 47 8.3 83 83 E 6 9 29.77 1008 10 16.0934 0 0

Powered by AerisWeather